Time,TemperatureF,DewpointF,PressureIn,WindDirection,WindDirectionDegrees,WindSpeedMPH,WindSpeedGustMPH,Humidity,HourlyPrecipIn,Conditions,Clouds,dailyrainin,SoftwareType,DateUTC
2013-04-16 00:14:00,53.1,52.3,30.10,ENE,67,6.3,-999.0,97,-99.99,,,0.00,Acu-Link.com,2013-04-16 04:14:00,
2013-04-16 00:30:00,53.1,52.5,30.10,East,90,6.8,-999.0,98,-99.99,,,0.00,Acu-Link.com,2013-04-16 04:30:00,
2013-04-16 00:45:00,52.9,52.4,30.10,ESE,112,7.3,-999.0,98,-99.99,,,0.00,Acu-Link.com,2013-04-16 04:45:00,
2013-04-16 01:00:00,52.9,52.6,30.10,East,90,8.9,-999.0,99,-99.99,,,0.00,Acu-Link.com,2013-04-16 05:00:00,
2013-04-16 01:15:00,52.9,52.6,30.10,ESE,112,4.7,-999.0,99,-99.99,,,0.00,Acu-Link.com,2013-04-16 05:15:00,
2013-04-16 01:31:00,52.7,52.4,30.10,ESE,112,7.3,-999.0,99,-99.99,,,0.00,Acu-Link.com,2013-04-16 05:31:00,
2013-04-16 02:01:00,52.5,52.2,30.10,ESE,112,7.3,-999.0,99,-99.99,,,0.00,Acu-Link.com,2013-04-16 06:01:00,
2013-04-16 02:16:00,52.5,52.2,30.09,East,90,4.7,-999.0,99,-99.99,,,0.00,Acu-Link.com,2013-04-16 06:16:00,
2013-04-16 02:31:00,52.3,52.0,30.09,ESE,112,6.8,-999.0,99,-99.99,,,0.00,Acu-Link.com,2013-04-16 06:31:00,
2013-04-16 02:46:00,52.3,52.0,30.08,East,90,6.3,-999.0,99,-99.99,,,0.00,Acu-Link.com,2013-04-16 06:46:00,
2013-04-16 03:02:00,52.3,52.0,30.09,SE,135,3.2,-999.0,99,-99.99,,,0.00,Acu-Link.com,2013-04-16 07:02:00,
2013-04-16 03:17:00,52.3,52.0,30.09,ESE,112,4.2,-999.0,99,-99.99,,,0.00,Acu-Link.com,2013-04-16 07:17:00,
2013-04-16 03:32:00,52.3,52.0,30.09,ENE,67,6.8,-999.0,99,-99.99,,,0.00,Acu-Link.com,2013-04-16 07:32:00,
2013-04-16 03:47:00,52.3,52.0,30.09,East,90,3.7,-999.0,99,-99.99,,,0.00,Acu-Link.com,2013-04-16 07:47:00,
2013-04-16 04:03:00,52.5,52.2,30.09,ESE,112,4.7,-999.0,99,-99.99,,,0.00,Acu-Link.com,2013-04-16 08:03:00,
2013-04-16 04:18:00,52.7,52.4,30.08,SE,135,6.8,-999.0,99,-99.99,,,0.00,Acu-Link.com,2013-04-16 08:18:00,
2013-04-16 04:33:00,53.1,52.8,30.09,SSE,157,3.7,-999.0,99,-99.99,,,0.00,Acu-Link.com,2013-04-16 08:33:00,
2013-04-16 04:48:00,53.1,52.8,30.09,South,180,0.0,-999.0,99,-99.99,,,0.00,Acu-Link.com,2013-04-16 08:48:00,
2013-04-16 05:03:00,53.1,52.8,30.09,NNE,22,1.7,-999.0,99,-99.99,,,0.00,Acu-Link.com,2013-04-16 09:03:00,
2013-04-16 05:18:00,53.2,52.9,30.09,ESE,112,4.7,-999.0,99,-99.99,,,0.00,Acu-Link.com,2013-04-16 09:18:00,
2013-04-16 05:34:00,53.2,52.9,30.09,SE,135,3.7,-999.0,99,-99.99,,,0.00,Acu-Link.com,2013-04-16 09:34:00,
2013-04-16 05:49:00,53.2,52.9,30.09,SE,135,1.7,-999.0,99,-99.99,,,0.00,Acu-Link.com,2013-04-16 09:49:00,
2013-04-16 06:04:00,53.2,52.9,30.10,SSE,157,0.0,-999.0,99,-99.99,,,0.00,Acu-Link.com,2013-04-16 10:04:00,
2013-04-16 06:20:00,53.4,53.1,30.10,ESE,112,3.7,-999.0,99,-99.99,,,0.00,Acu-Link.com,2013-04-16 10:20:00,
2013-04-16 06:35:00,53.6,53.3,30.11,SE,135,2.2,-999.0,99,-99.99,,,0.00,Acu-Link.com,2013-04-16 10:35:00,
2013-04-16 06:50:00,53.8,53.5,30.12,SSE,157,3.2,-999.0,99,-99.99,,,0.00,Acu-Link.com,2013-04-16 10:50:00,
2013-04-16 07:05:00,53.8,53.5,30.12,South,180,1.7,-999.0,99,-99.99,,,0.00,Acu-Link.com,2013-04-16 11:05:00,
2013-04-16 07:20:00,53.8,53.5,30.12,SSE,157,3.2,-999.0,99,-99.99,,,0.00,Acu-Link.com,2013-04-16 11:20:00,
2013-04-16 07:36:00,53.8,53.5,30.13,SSE,157,2.2,-999.0,99,-99.99,,,0.00,Acu-Link.com,2013-04-16 11:36:00,
2013-04-16 07:51:00,54.0,53.7,30.14,SE,135,3.2,-999.0,99,-99.99,,,0.00,Acu-Link.com,2013-04-16 11:51:00,
2013-04-16 08:21:00,54.1,53.8,30.14,SSE,157,5.8,-999.0,99,-99.99,,,0.00,Acu-Link.com,2013-04-16 12:21:00,
2013-04-16 08:37:00,54.1,53.8,30.15,ESE,112,0.0,-999.0,99,-99.99,,,0.00,Acu-Link.com,2013-04-16 12:37:00,
2013-04-16 08:52:00,54.7,54.4,30.15,SE,135,2.7,-999.0,99,-99.99,,,0.00,Acu-Link.com,2013-04-16 12:52:00,
2013-04-16 09:07:00,55.0,54.7,30.15,South,180,2.2,-999.0,99,-99.99,,,0.00,Acu-Link.com,2013-04-16 13:07:00,
2013-04-16 09:22:00,55.4,55.1,30.15,SSW,202,3.7,-999.0,99,-99.99,,,0.00,Acu-Link.com,2013-04-16 13:22:00,
2013-04-16 09:37:00,56.3,56.0,30.15,SSE,157,3.7,-999.0,99,-99.99,,,0.00,Acu-Link.com,2013-04-16 13:37:00,
2013-04-16 09:52:00,58.5,56.8,30.16,South,180,4.7,-999.0,94,-99.99,,,0.00,Acu-Link.com,2013-04-16 13:52:00,
2013-04-16 10:07:00,59.2,56.9,30.15,South,180,5.8,-999.0,92,-99.99,,,0.00,Acu-Link.com,2013-04-16 14:07:00,
2013-04-16 10:23:00,59.0,57.0,30.16,SSW,202,4.7,-999.0,93,-99.99,,,0.00,Acu-Link.com,2013-04-16 14:23:00,
2013-04-16 10:38:00,59.7,57.1,30.16,SSW,202,6.8,-999.0,91,-99.99,,,0.00,Acu-Link.com,2013-04-16 14:38:00,
2013-04-16 10:53:00,59.9,57.0,30.16,SSW,202,4.7,-999.0,90,-99.99,,,0.00,Acu-Link.com,2013-04-16 14:53:00,
2013-04-16 11:08:00,61.0,57.7,30.16,South,180,4.2,-999.0,89,-99.99,,,0.00,Acu-Link.com,2013-04-16 15:08:00,
2013-04-16 11:23:00,61.7,57.8,30.16,South,180,3.7,-999.0,87,-99.99,,,0.00,Acu-Link.com,2013-04-16 15:23:00,
2013-04-16 11:39:00,63.1,58.2,30.15,SSW,202,5.3,-999.0,84,-99.99,,,0.00,Acu-Link.com,2013-04-16 15:39:00,
2013-04-16 11:54:00,65.1,59.1,30.15,SSW,202,8.9,-999.0,81,-99.99,,,0.00,Acu-Link.com,2013-04-16 15:54:00,
2013-04-16 12:09:00,64.6,58.6,30.16,SSW,202,10.4,-999.0,81,-99.99,,,0.00,Acu-Link.com,2013-04-16 16:09:00,
2013-04-16 12:24:00,64.9,58.2,30.15,WNW,292,2.7,-999.0,79,-99.99,,,0.00,Acu-Link.com,2013-04-16 16:24:00,
2013-04-16 12:39:00,66.4,58.6,30.16,West,270,3.7,-999.0,76,-99.99,,,0.00,Acu-Link.com,2013-04-16 16:39:00,
2013-04-16 12:54:00,66.4,59.0,30.14,South,180,6.8,-999.0,77,-99.99,,,0.00,Acu-Link.com,2013-04-16 16:54:00,
2013-04-16 13:09:00,67.6,59.8,30.15,South,180,6.8,-999.0,76,-99.99,,,0.00,Acu-Link.com,2013-04-16 17:09:00,
2013-04-16 13:24:00,67.1,59.3,30.14,SE,135,4.2,-999.0,76,-99.99,,,0.00,Acu-Link.com,2013-04-16 17:24:00,
2013-04-16 13:39:00,67.6,60.1,30.13,South,180,6.8,-999.0,77,-99.99,,,0.00,Acu-Link.com,2013-04-16 17:39:00,
2013-04-16 13:54:00,68.4,60.2,30.12,South,180,4.2,-999.0,75,-99.99,,,0.00,Acu-Link.com,2013-04-16 17:54:00,
2013-04-16 14:10:00,68.2,59.2,30.12,SSE,157,8.3,-999.0,73,-99.99,,,0.00,Acu-Link.com,2013-04-16 18:10:00,
2013-04-16 14:25:00,69.8,60.4,30.12,SSE,157,5.8,-999.0,72,-99.99,,,0.00,Acu-Link.com,2013-04-16 18:25:00,
2013-04-16 14:41:00,70.7,60.8,30.11,SSE,157,7.8,-999.0,71,-99.99,,,0.00,Acu-Link.com,2013-04-16 18:41:00,
2013-04-16 14:56:00,70.7,59.6,30.10,SSW,202,7.8,-999.0,68,-99.99,,,0.00,Acu-Link.com,2013-04-16 18:56:00,
2013-04-16 15:11:00,71.1,59.6,30.10,SSE,157,4.2,-999.0,67,-99.99,,,0.00,Acu-Link.com,2013-04-16 19:11:00,
2013-04-16 15:27:00,71.4,59.9,30.09,NNE,22,3.7,-999.0,67,-99.99,,,0.00,Acu-Link.com,2013-04-16 19:27:00,
2013-04-16 15:42:00,70.5,59.0,30.08,SSE,157,7.3,-999.0,67,-99.99,,,0.00,Acu-Link.com,2013-04-16 19:42:00,
2013-04-16 15:57:00,69.8,59.2,30.07,ESE,112,4.7,-999.0,69,-99.99,,,0.00,Acu-Link.com,2013-04-16 19:57:00,
2013-04-16 16:12:00,69.6,59.0,30.08,South,180,4.7,-999.0,69,-99.99,,,0.00,Acu-Link.com,2013-04-16 20:12:00,
2013-04-16 16:27:00,73.4,60.5,30.06,ENE,67,6.8,-999.0,64,-99.99,,,0.00,Acu-Link.com,2013-04-16 20:27:00,
2013-04-16 16:43:00,73.6,60.2,30.06,East,90,6.3,-999.0,63,-99.99,,,0.00,Acu-Link.com,2013-04-16 20:43:00,
2013-04-16 16:58:00,72.5,60.5,30.06,ESE,112,7.3,-999.0,66,-99.99,,,0.00,Acu-Link.com,2013-04-16 20:58:00,
2013-04-16 17:13:00,72.3,59.9,30.06,SSW,202,7.3,-999.0,65,-99.99,,,0.00,Acu-Link.com,2013-04-16 21:13:00,
2013-04-16 17:28:00,72.0,60.0,30.06,SSE,157,7.8,-999.0,66,-99.99,,,0.00,Acu-Link.com,2013-04-16 21:28:00,
2013-04-16 17:43:00,72.1,59.7,30.06,SE,135,7.3,-999.0,65,-99.99,,,0.00,Acu-Link.com,2013-04-16 21:43:00,
2013-04-16 17:58:00,72.0,59.6,30.06,East,90,6.3,-999.0,65,-99.99,,,0.00,Acu-Link.com,2013-04-16 21:58:00,
2013-04-16 18:13:00,71.6,59.2,30.05,ESE,112,11.9,-999.0,65,-99.99,,,0.00,Acu-Link.com,2013-04-16 22:13:00,
2013-04-16 18:28:00,71.4,59.9,30.06,South,180,8.3,-999.0,67,-99.99,,,0.00,Acu-Link.com,2013-04-16 22:28:00,
2013-04-16 18:44:00,72.0,59.6,30.06,ESE,112,3.2,-999.0,65,-99.99,,,0.00,Acu-Link.com,2013-04-16 22:44:00,
2013-04-16 18:59:00,70.2,59.1,30.06,SSW,202,7.8,-999.0,68,-99.99,,,0.00,Acu-Link.com,2013-04-16 22:59:00,
2013-04-16 19:14:00,69.1,58.5,30.07,South,180,9.4,-999.0,69,-99.99,,,0.00,Acu-Link.com,2013-04-16 23:14:00,
2013-04-16 19:29:00,67.8,58.0,30.07,SSW,202,5.8,-999.0,71,-99.99,,,0.00,Acu-Link.com,2013-04-16 23:29:00,
2013-04-16 19:44:00,66.9,58.0,30.06,SSW,202,2.7,-999.0,73,-99.99,,,0.00,Acu-Link.com,2013-04-16 23:44:00,
2013-04-16 19:59:00,66.0,57.5,30.07,South,180,4.7,-999.0,74,-99.99,,,0.00,Acu-Link.com,2013-04-16 23:59:00,
2013-04-16 20:15:00,65.1,57.3,30.08,South,180,7.3,-999.0,76,-99.99,,,0.00,Acu-Link.com,2013-04-17 00:15:00,
2013-04-16 20:30:00,64.8,57.4,30.09,South,180,6.3,-999.0,77,-99.99,,,0.00,Acu-Link.com,2013-04-17 00:30:00,
2013-04-16 20:45:00,64.2,57.2,30.08,SSW,202,3.2,-999.0,78,-99.99,,,0.00,Acu-Link.com,2013-04-17 00:45:00,
2013-04-16 21:00:00,63.5,56.9,30.09,SSW,202,2.7,-999.0,79,-99.99,,,0.00,Acu-Link.com,2013-04-17 01:00:00,
2013-04-16 21:15:00,63.7,57.1,30.10,South,180,3.7,-999.0,79,-99.99,,,0.00,Acu-Link.com,2013-04-17 01:15:00,
2013-04-16 21:30:00,63.1,56.8,30.10,SSW,202,5.8,-999.0,80,-99.99,,,0.00,Acu-Link.com,2013-04-17 01:30:00,
2013-04-16 21:45:00,62.6,56.7,30.10,SSW,202,2.2,-999.0,81,-99.99,,,0.00,Acu-Link.com,2013-04-17 01:45:00,
2013-04-16 22:00:00,62.2,56.6,30.11,SSW,202,3.7,-999.0,82,-99.99,,,0.00,Acu-Link.com,2013-04-17 02:00:00,
2013-04-16 22:16:00,62.6,56.7,30.11,SSW,202,2.7,-999.0,81,-99.99,,,0.00,Acu-Link.com,2013-04-17 02:16:00,
2013-04-16 23:02:00,61.3,55.8,30.10,SSW,202,2.7,-999.0,82,-99.99,,,0.00,Acu-Link.com,2013-04-17 03:02:00,
2013-04-16 23:17:00,61.5,56.3,30.10,South,180,6.3,-999.0,83,-99.99,,,0.00,Acu-Link.com,2013-04-17 03:17:00,
2013-04-16 23:32:00,61.3,56.1,30.09,SSW,202,0.0,-999.0,83,-99.99,,,0.00,Acu-Link.com,2013-04-17 03:32:00,
2013-04-16 23:47:00,60.6,55.7,30.10,South,180,3.2,-999.0,84,-99.99,,,0.00,Acu-Link.com,2013-04-17 03:47:00,